Lid_Strength_Index
11 11 11 12 12 11 13 13 16 13 14 11 9 9 8 7 7 8 8 8 8 10 11 11 11 11 10 10 9 8 9 11 11 11 11 11 12 12 13 13 12 12 14 14
14 12 12 13 11 11 12 12 12 12 13 8 7 6 7 7 7 7 8 8 7 10 11 10 10 11 9 9 9 10 11 11 11 11 12 12 13 12 12 13 13 13 14 15
17 13 13 16 13 12 11 10 11 14 11 8 8 8 7 7 6 7 7 7 8 10 10 10 10 10 9 9 10 11 11 12 12 12 13 13 12 13 13 14 14 15 15 15
16 14 20 12 9 10 10 10 9 8 8 8 8 7 6 6 6 7 7 7 8 10 10 10 10 8 8 10 11 11 12 12 12 13 14 13 13 14 15 14 17 17 16 16
17 17 14 12 10 10 11 11 8 9 8 8 7 7 8 6 6 6 7 8 10 10 11 10 9 8 9 11 11 12 13 13 13 14 14 14 18 19 17 15 16 16 16 17
16 19 19 13 8 7 8 14 8 8 8 9 8 12 11 9 8 10 10 10 11 11 10 10 9 9 10 11 12 13 14 13 13 13 16 20 20 19 17 16 14 15 16 18
15 16 15 10 8 7 14 14 7 7 8 9 10 10 10 10 11 11 11 11 11 10 10 10 10 11 12 13 13 13 12 13 13 13 14 15 16 17 17 17 14 15 17 18
14 17 18 7 7 12 9 8 8 7 8 10 10 10 11 11 11 11 11 11 10 11 10 9 10 11 14 14 13 13 13 13 14 14 13 13 15 15 13 15 15 16 18 19
13 14 8 7 8 7 6 7 7 7 8 9 11 11 10 11 11 11 11 10 10 10 10 10 10 12 13 13 13 13 13 17 15 13 13 13 14 15 16 15 16 17 17 20
11 9 8 7 6 6 6 6 6 6 9 9 10 10 11 11 11 11 11 11 10 10 11 11 11 11 12 12 12 12 13 14 14 14 14 15 15 15 16 17 17 16 18 21
11 9 8 7 7 6 6 6 6 7 9 9 10 10 11 11 11 11 11 11 10 11 11 11 11 12 11 11 11 13 13 14 15 15 15 15 16 17 16 18 16 17 19 20
12 8 8 8 6 5 6 6 7 9 9 9 9 10 10 11 11 11 11 11 11 11 11 11 11 11 11 11 11 12 14 14 15 15 16 16 16 16 14 14 14 14 15 18
9 6 6 6 5 5 5 5 7 8 9 10 9 10 10 11 10 10 10 10 11 12 13 14 13 14 12 11 11 13 14 14 14 14 16 16 16 16 19 16 14 14 14 14
5 6 8 7 8 6 5 6 6 8 8 9 9 9 10 11 10 10 11 11 12 13 14 14 14 15 15 13 14 15 15 14 15 15 15 16 17 17 18 19 20 22 16 16
5 5 6 6 6 7 6 7 8 9 9 9 9 10 11 11 11 11 12 12 13 13 15 15 15 16 16 14 14 15 15 16 17 18 18 18 19 19 18 18 18 20 22 22
5 6 6 7 8 7 7 8 9 9 9 10 11 11 11 11 11 12 12 13 14 15 15 16 16 16 15 15 15 15 15 16 16 16 17 17 17 17 17 18 19 21 24 24
8 9 8 9 9 9 9 8 9 9 10 10 11 11 11 11 11 12 12 13 14 15 15 16 16 16 15 15 14 15 15 15 16 16 16 16 17 17 18 19 19 21 24 25
6 7 7 8 9 10 10 10 10 9 10 10 10 11 11 12 13 14 14 15 15 16 16 16 15 15 15 15 14 15 16 15 16 16 16 17 17 16 18 18 18 20 21 23
7 7 8 8 9 10 10 10 10 10 10 10 10 12 12 13 14 14 15 15 16 17 17 16 14 15 15 15 14 15 15 16 16 17 18 19 18 18 20 20 21 21 21 22
10 10 10 10 10 10 11 12 11 11 11 12 12 13 14 14 14 15 15 15 15 15 16 15 14 14 14 14 14 15 16 17 17 19 19 18 20 23 23 21 21 24 26 25
11 11 12 11 10 10 12 14 12 14 15 12 13 13 14 14 14 14 15 15 15 15 15 14 14 15 15 16 15 16 17 19 20 20 20 21 21 20 22 24 23 24 25 27
11 11 14 12 10 11 12 15 14 15 14 13 13 13 14 14 14 13 13 15 14 15 15 14 14 15 16 16 15 16 16 17 18 19 19 20 21 21 22 23 23 25 28 30
9 9 9 10 10 10 11 14 17 16 16 16 15 14 14 13 13 14 15 13 14 14 14 14 15 16 17 16 16 17 18 18 19 19 20 20 21 21 22 23 26 27 28 30
10 10 10 10 10 11 12 12 12 14 17 16 17 16 14 14 13 11 12 12 13 13 15 15 15 16 15 16 17 17 18 19 19 19 20 21 23 22 24 27 29 29 31 31
10 10 11 11 11 11 11 11 12 13 14 14 14 14 13 12 13 13 12 12 13 15 15 16 15 15 15 16 17 19 19 19 20 22 22 21 23 24 24 25 29 30 31 32
10 10 10 10 10 11 11 11 12 13 13 15 14 14 15 14 13 13 13 13 14 15 16 17 16 16 16 17 18 20 20 21 20 20 21 22 22 23 24 25 29 31 32 33
9 11 10 9 9 10 10 11 12 13 12 13 14 13 13 14 14 14 14 14 15 16 17 17 17 16 16 18 19 19 21 21 21 21 22 22 23 23 24 26 28 30 31 32